Location: Unspecified
(0.0000°N, 0.0000°E)
Time: 09:30:56
(UTC+00:00)

Vanguard 2 - Pass Details

Date: 08 December 2017
Orbit: 553 x 2939 km, 32.9° (Epoch: 20 April)

Event Time Altitude Azimuth Distance (km) Brightness Sun altitude
Rises 06:30:11 0° 238° (WSW) 6,216 11.8 8.8°
Reaches altitude 10° 06:36:56 10° 219° (SW) 5,537 11.8 10.4°
Maximum altitude 06:46:22 16° 185° (S) 5,212 12.1 12.5°
Drops below altitude 10° 06:56:04 10° 151° (SSE) 5,689 12.9 14.8°
Sets 07:03:14 0° 132° (SE) 6,456 13.7 16.4°
